Greenwood, SC

11:48 AM EST on January 19, 2018 (GMT -0500)
Greenwood County

Weather History for KGRD - October, 2011

Change the Weather History Date:

Saturday, October 15, 2011

  Actual Average (KAND) Record (KAND)
Temperature  
Mean Temperature 67 °F -  
Max Temperature 80 °F 75 °F 87 °F (1950)
Min Temperature 55 °F 50 °F 33 °F (1988)
Cooling Degree Days 2    
Growing Degree Days 17 (Base 50)    
Moisture  
Dew Point 43 °F    
Average Humidity 46    
Maximum Humidity 69    
Minimum Humidity 25    
Precipitation  
Precipitation 0.00 in - - ()
Sea Level Pressure  
Sea Level Pressure 29.99 in    
Wind  
Wind Speed 9 mph (WSW)    
Max Wind Speed 17 mph    
Max Gust Speed 29 mph    
Visibility 10 miles    
Events      
Averages and records for this station are not official NWS values.
T = Trace of Precipitation, MM = Missing Value Source: NWS Daily Summary

Daily Weather History Graph

Daily Weather History Graph

Search for Another Location

Airport or City:

Trip Planner

Search our weather history database for the weather conditions in past years. The results will help you decide how hot, cold, wet, or windy it might be!

Date:

Astronomy

Oct. 15, 2011 Rise Set
Actual Time 7:33 AM EDT 6:54 PM EDT
Civil Twilight 7:08 AM EDT 7:19 PM EDT
Nautical Twilight 6:39 AM EDT 7:49 PM EDT
Astronomical Twilight 6:10 AM EDT 8:18 PM EDT
Moon 9:01 PM EDT (10/15) 10:46 AM EDT (10/15)
Length of Visible Light 12h 11m
Length of Day
11h 20m
Waning Gibbous, 89% of the Moon is Illuminated
Oct 15
Waning Gibbous
Oct 19
Last Quarter
Oct 26
New
Nov 2
First Quarter
Nov 10
Full

Hourly Weather History & Observations

Time (EDT) Temp. Dew Point Humidity Pressure Visibility Wind Dir Wind Speed Gust Speed Precip Events Conditions
12:56 AM 60.1 °F 46.0 °F 60% 29.93 in 10.0 mi SW 8.1 mph - N/A   Clear
1:56 AM 61.0 °F 45.0 °F 56% 29.95 in 10.0 mi WSW 9.2 mph - N/A   Clear
2:56 AM 61.0 °F 45.0 °F 56% 29.95 in 10.0 mi WSW 9.2 mph - N/A   Clear
3:56 AM 59.0 °F 45.0 °F 60% 29.96 in 10.0 mi WSW 8.1 mph - N/A   Clear
4:56 AM 57.9 °F 46.0 °F 65% 29.96 in 10.0 mi WSW 8.1 mph - N/A   Clear
5:56 AM 55.9 °F 46.0 °F 69% 29.97 in 10.0 mi SW 8.1 mph - N/A   Clear
6:56 AM 57.0 °F 46.0 °F 67% 29.99 in 10.0 mi WSW 8.1 mph - N/A   Clear
7:56 AM 57.0 °F 46.9 °F 69% 30.00 in 10.0 mi WSW 8.1 mph - N/A   Clear
8:56 AM 60.1 °F 48.0 °F 64% 30.01 in 10.0 mi WSW 8.1 mph - N/A   Clear
9:56 AM 64.9 °F 48.0 °F 54% 30.03 in 10.0 mi WSW 8.1 mph - N/A   Clear
10:56 AM 71.1 °F 46.0 °F 41% 30.04 in 10.0 mi West 10.4 mph 19.6 mph N/A   Clear
11:56 AM 73.9 °F 39.9 °F 29% 30.03 in 10.0 mi WSW 12.7 mph 20.7 mph N/A   Clear
12:56 PM 75.9 °F 39.9 °F 27% 30.02 in 10.0 mi West 15.0 mph 24.2 mph N/A   Clear
1:56 PM 78.1 °F 39.0 °F 25% 29.99 in 10.0 mi West 11.5 mph 21.9 mph N/A   Clear
2:56 PM 78.1 °F 39.9 °F 25% 29.98 in 10.0 mi West 17.3 mph 28.8 mph N/A   Clear
3:56 PM 79.0 °F 41.0 °F 26% 29.97 in 10.0 mi WSW 15.0 mph 24.2 mph N/A   Clear
4:56 PM 78.1 °F 41.0 °F 27% 29.96 in 10.0 mi West 9.2 mph 18.4 mph N/A   Clear
5:56 PM 77.0 °F 43.0 °F 30% 29.97 in 10.0 mi West 8.1 mph - N/A   Clear
6:56 PM 73.0 °F 41.0 °F 31% 30.00 in 10.0 mi WSW 10.4 mph 23.0 mph N/A   Clear
7:56 PM 70.0 °F 39.9 °F 33% 30.03 in 10.0 mi WSW 4.6 mph - N/A   Clear
8:56 PM 66.9 °F 41.0 °F 39% 30.05 in 10.0 mi West 5.8 mph - N/A   Clear
10:56 PM 60.1 °F 43.0 °F 53% 30.08 in 10.0 mi West 4.6 mph - N/A   Clear